Total_Precipitation_Accumulation
1.18 1.21 1.32 1.49 1.59 1.64 1.79 1.78 1.73 1.71 1.76 1.72 1.67 1.70 1.68 1.58 1.64 1.83 1.94 2.13 2.27 2.34 2.31 2.34 2.33 2.45 2.51 2.41 2.51 2.63 2.87 3.06 2.72 2.21 2.27 2.42 2.37 2.14 1.95 1.77 1.65 1.61 1.60
1.16 1.24 1.32 1.42 1.50 1.56 1.62 1.70 1.76 1.74 1.81 1.79 1.74 1.71 1.58 1.57 1.66 1.75 1.89 2.06 2.21 2.31 2.41 2.50 2.29 2.39 2.52 2.47 2.48 2.50 2.62 2.91 2.80 2.64 2.58 2.65 2.56 2.30 2.07 1.80 1.50 1.37 1.42
1.29 1.30 1.26 1.33 1.32 1.38 1.48 1.55 1.68 1.74 1.80 1.85 1.85 1.77 1.71 1.74 1.82 1.86 1.91 2.04 2.16 2.24 2.34 2.35 2.31 2.44 2.34 2.41 2.50 2.46 2.46 2.52 2.64 2.61 2.49 2.55 2.47 2.27 2.08 1.82 1.58 1.54 1.39
1.19 1.23 1.27 1.27 1.32 1.42 1.51 1.57 1.66 1.67 1.72 1.72 1.70 1.78 1.83 1.86 1.88 1.87 1.86 1.88 1.95 2.03 2.03 1.95 1.90 1.95 2.03 2.22 2.22 2.23 2.31 2.38 2.46 2.40 2.37 2.43 2.43 2.46 2.29 1.99 1.84 1.67 1.49
1.21 1.18 1.24 1.35 1.38 1.42 1.42 1.46 1.53 1.57 1.56 1.71 1.74 1.84 1.91 1.88 1.77 1.81 1.81 1.73 1.88 1.84 1.71 1.66 1.67 1.76 1.78 1.87 1.79 1.90 2.09 2.16 2.21 2.28 2.35 2.50 2.50 2.62 2.48 2.20 2.05 1.91 1.64
1.20 1.29 1.37 1.39 1.32 1.39 1.42 1.43 1.47 1.54 1.61 1.70 1.76 1.88 1.94 1.79 1.84 1.86 1.86 1.83 1.85 1.80 1.75 1.69 1.55 1.54 1.53 1.56 1.57 1.62 1.78 1.92 2.09 2.25 2.31 2.40 2.46 2.41 2.37 2.25 2.14 1.97 1.69
1.25 1.26 1.44 1.54 1.46 1.54 1.58 1.58 1.56 1.56 1.68 1.77 1.91 1.97 1.94 2.02 1.94 1.77 1.75 1.70 1.75 1.78 1.82 1.79 1.51 1.33 1.45 1.41 1.53 1.51 1.48 1.53 1.63 1.80 1.92 2.05 2.26 2.34 2.42 2.34 2.34 2.21 1.91
1.30 1.38 1.62 1.77 1.68 1.70 1.72 1.74 1.77 1.82 1.85 1.96 2.00 1.92 1.88 1.95 1.89 1.55 1.43 1.34 1.47 1.58 1.65 1.72 1.71 1.60 1.57 1.57 1.62 1.62 1.55 1.52 1.61 1.60 1.64 1.85 2.19 2.48 2.52 2.47 2.50 2.37 2.06
1.45 1.56 1.78 2.02 2.16 2.12 1.98 2.06 2.14 2.12 2.10 2.16 2.19 2.13 1.99 1.97 1.81 1.45 1.29 1.22 1.36 1.45 1.51 1.51 1.52 1.44 1.48 1.39 1.40 1.47 1.47 1.42 1.41 1.42 1.44 1.56 1.83 2.20 2.40 2.43 2.51 2.41 2.17
1.63 1.64 1.79 2.02 2.14 2.12 2.14 2.35 2.45 2.37 2.27 2.28 2.17 2.03 1.92 1.91 1.88 1.55 1.34 1.25 1.37 1.46 1.57 1.54 1.52 1.47 1.45 1.29 1.23 1.30 1.28 1.28 1.36 1.36 1.33 1.33 1.42 1.72 2.04 2.03 2.11 2.24 2.03
1.61 1.64 1.77 2.02 2.31 2.28 2.31 2.39 2.45 2.45 2.44 2.45 2.34 2.22 2.07 2.01 1.99 1.68 1.47 1.36 1.43 1.49 1.44 1.43 1.43 1.42 1.22 1.12 1.09 1.13 1.17 1.17 1.29 1.34 1.35 1.37 1.43 1.52 1.66 1.73 1.81 1.89 1.88
1.66 1.66 1.75 2.02 2.15 2.21 2.34 2.38 2.47 2.56 2.53 2.49 2.48 2.32 2.27 2.19 1.92 1.66 1.47 1.43 1.49 1.54 1.52 1.49 1.46 1.33 1.10 0.99 0.88 0.85 0.89 0.88 0.93 1.08 1.14 1.18 1.25 1.32 1.43 1.58 1.74 1.80 1.80
1.58 1.55 1.64 1.81 1.91 2.06 2.15 2.09 2.15 2.28 2.27 2.29 2.30 2.25 2.28 2.38 2.21 1.78 1.47 1.37 1.41 1.49 1.62 1.68 1.48 1.30 1.14 1.01 0.94 0.86 0.79 0.75 0.85 0.95 1.01 1.01 1.06 1.17 1.35 1.57 1.76 1.95 1.89
1.53 1.48 1.59 1.80 1.90 1.98 2.04 2.02 2.07 2.12 2.19 2.26 2.28 2.22 2.23 2.35 2.33 2.00 1.67 1.47 1.37 1.33 1.36 1.35 1.25 1.18 1.06 0.94 0.87 0.78 0.70 0.74 0.81 0.84 0.91 0.99 1.10 1.28 1.38 1.40 1.51 1.73 1.89
1.65 1.59 1.68 1.79 1.87 2.02 2.08 2.10 2.10 2.09 2.07 2.07 2.07 2.02 2.02 2.13 2.14 1.93 1.68 1.53 1.40 1.34 1.30 1.29 1.26 1.26 1.15 1.06 0.99 0.94 0.94 0.96 0.92 0.92 0.99 1.08 1.14 1.22 1.32 1.40 1.48 1.54 1.58
1.78 1.73 1.70 1.66 1.74 1.80 1.84 1.79 1.74 1.69 1.67 1.61 1.60 1.52 1.50 1.65 1.65 1.39 1.24 1.26 1.25 1.21 1.16 1.19 1.26 1.30 1.25 1.18 1.14 1.09 1.11 1.10 1.06 1.08 1.10 1.15 1.20 1.23 1.30 1.44 1.57 1.59 1.49
1.82 1.69 1.57 1.51 1.51 1.53 1.62 1.70 1.74 1.64 1.53 1.42 1.36 1.25 1.16 1.35 1.41 1.24 1.11 1.05 1.01 0.99 1.00 1.06 1.11 1.19 1.24 1.15 1.07 1.03 1.03 1.06 1.14 1.17 1.16 1.19 1.26 1.31 1.35 1.45 1.58 1.66 1.59
1.80 1.67 1.47 1.38 1.37 1.37 1.49 1.59 1.62 1.63 1.58 1.38 1.22 1.12 1.01 1.11 1.21 1.17 1.05 0.93 0.90 0.90 0.92 1.01 1.08 1.14 1.21 1.17 1.09 1.10 1.13 1.17 1.17 1.17 1.19 1.22 1.29 1.34 1.39 1.44 1.51 1.59 1.59
1.74 1.62 1.47 1.42 1.41 1.33 1.27 1.32 1.37 1.41 1.47 1.40 1.22 1.14 1.07 1.10 1.17 1.12 0.99 0.86 0.90 0.90 0.92 0.99 1.05 1.11 1.14 1.13 1.13 1.16 1.17 1.20 1.15 1.17 1.23 1.29 1.30 1.38 1.38 1.43 1.52 1.63 1.64
1.44 1.39 1.34 1.34 1.35 1.30 1.25 1.26 1.33 1.39 1.45 1.41 1.28 1.18 1.08 1.06 1.09 1.09 0.98 0.92 0.91 0.90 0.90 0.97 1.05 1.10 1.13 1.15 1.23 1.30 1.29 1.31 1.32 1.26 1.29 1.36 1.32 1.34 1.35 1.37 1.47 1.53 1.54
1.25 1.19 1.13 1.13 1.15 1.14 1.15 1.22 1.35 1.42 1.45 1.35 1.16 1.02 0.95 0.86 0.93 0.95 0.98 1.02 1.02 1.04 1.07 1.07 1.11 1.16 1.19 1.25 1.31 1.37 1.38 1.38 1.39 1.33 1.32 1.40 1.40 1.42 1.44 1.40 1.41 1.51 1.52
1.32 1.16 1.03 0.99 1.02 1.05 1.12 1.23 1.31 1.30 1.23 1.17 1.06 0.97 0.94 0.87 0.88 0.90 0.96 0.98 0.99 1.01 0.99 1.01 1.03 1.10 1.13 1.18 1.22 1.27 1.30 1.31 1.35 1.39 1.39 1.40 1.41 1.38 1.40 1.38 1.36 1.47 1.56
1.16 0.97 0.81 0.77 0.80 0.91 1.06 1.23 1.28 1.19 1.08 1.03 1.02 0.98 0.99 0.99 0.96 0.96 0.98 0.97 0.96 0.94 0.93 0.96 0.97 1.00 1.07 1.07 1.06 1.12 1.16 1.16 1.17 1.25 1.35 1.36 1.38 1.40 1.40 1.42 1.41 1.45 1.55
1.08 0.90 0.75 0.70 0.73 0.83 1.00 1.19 1.20 1.09 1.03 1.05 1.05 1.05 1.04 1.01 0.99 1.00 1.02 1.04 1.01 0.98 0.96 1.00 0.99 0.94 0.96 1.00 0.98 0.94 0.95 0.94 0.94 1.03 1.17 1.28 1.32 1.40 1.40 1.41 1.45 1.44 1.52
0.97 0.89 0.78 0.75 0.80 0.93 1.11 1.20 1.13 1.04 1.00 0.99 0.99 1.06 1.12 1.11 1.07 1.04 1.03 1.08 1.09 1.11 1.06 1.01 1.00 0.93 0.87 0.87 0.88 0.84 0.84 0.77 0.74 0.82 0.95 1.10 1.17 1.27 1.32 1.35 1.44 1.46 1.47
0.92 0.89 0.84 0.81 0.90 1.05 1.14 1.13 1.02 0.98 1.03 0.99 0.96 1.01 1.08 1.12 1.14 1.17 1.15 1.10 1.05 1.01 0.94 0.91 0.89 0.88 0.84 0.78 0.74 0.70 0.65 0.61 0.63 0.72 0.80 0.91 1.02 1.12 1.22 1.28 1.32 1.38 1.38